TimeCDT,TemperatureF,Dew PointF,Humidity,Sea Level PressureIn,VisibilityMPH,Wind Direction,Wind SpeedMPH,Gust SpeedMPH,PrecipitationIn,Events,Conditions,WindDirDegrees,DateUTC
12:15 AM,65.8,64.4,95,30.01,7.0,Calm,Calm,-,N/A,,Clear,0,2013-08-02 05:15:00
12:35 AM,64.6,63.1,95,30.01,7.0,Calm,Calm,-,N/A,,Clear,0,2013-08-02 05:35:00
12:55 AM,64.8,63.5,96,30.01,10.0,Calm,Calm,-,N/A,,Clear,0,2013-08-02 05:55:00
1:15 AM,65.3,63.7,94,30.00,7.0,Calm,Calm,-,N/A,,Clear,0,2013-08-02 06:15:00
1:55 AM,65.3,63.5,94,30.00,10.0,Calm,Calm,-,N/A,,Clear,0,2013-08-02 06:55:00
2:15 AM,65.1,63.5,94,30.00,10.0,SSE,3.5,-,N/A,,Clear,160,2013-08-02 07:15:00
2:35 AM,64.4,62.6,94,30.00,7.0,Calm,Calm,-,N/A,,Clear,0,2013-08-02 07:35:00
2:55 AM,64.4,63.0,95,30.00,5.0,Calm,Calm,-,N/A,,Clear,0,2013-08-02 07:55:00
3:15 AM,64.2,62.8,95,30.00,7.0,Calm,Calm,-,N/A,,Clear,0,2013-08-02 08:15:00
3:35 AM,63.5,61.9,94,30.00,5.0,Calm,Calm,-,N/A,,Clear,0,2013-08-02 08:35:00
3:38 AM,62.6,62.6,100,30.00,5.0,Calm,Calm,-,N/A,,Clear,0,2013-08-02 08:38:00
3:55 AM,63.7,62.2,95,30.00,5.0,Calm,Calm,-,N/A,,Clear,0,2013-08-02 08:55:00
4:15 AM,64.4,62.8,94,29.99,7.0,Calm,Calm,-,N/A,,Clear,0,2013-08-02 09:15:00
4:35 AM,64.4,62.8,94,30.00,7.0,Calm,Calm,-,N/A,,Clear,0,2013-08-02 09:35:00
4:55 AM,64.0,62.6,95,29.99,7.0,Calm,Calm,-,N/A,,Clear,0,2013-08-02 09:55:00
5:15 AM,63.7,62.2,95,30.00,7.0,Calm,Calm,-,N/A,,Clear,0,2013-08-02 10:15:00
5:35 AM,63.9,62.4,95,30.00,7.0,Calm,Calm,-,N/A,,Clear,0,2013-08-02 10:35:00
5:55 AM,64.4,63.0,95,30.01,7.0,Calm,Calm,-,N/A,,Clear,0,2013-08-02 10:55:00
6:15 AM,64.4,63.0,95,30.00,10.0,Calm,Calm,-,N/A,,Clear,0,2013-08-02 11:15:00
6:35 AM,64.6,63.1,95,30.01,7.0,Calm,Calm,-,N/A,,Clear,0,2013-08-02 11:35:00
6:55 AM,65.5,64.2,96,30.00,7.0,SE,3.5,-,N/A,,Clear,140,2013-08-02 11:55:00
7:15 AM,66.4,64.9,95,30.01,7.0,Calm,Calm,-,N/A,,Clear,0,2013-08-02 12:15:00
7:35 AM,67.3,65.5,94,30.01,7.0,Calm,Calm,-,N/A,,Clear,0,2013-08-02 12:35:00
7:55 AM,68.0,65.8,93,30.01,10.0,Calm,Calm,-,N/A,,Clear,0,2013-08-02 12:55:00
8:15 AM,69.1,66.2,91,30.01,10.0,Calm,Calm,-,N/A,,Clear,0,2013-08-02 13:15:00
8:35 AM,70.7,66.4,86,30.02,10.0,Calm,Calm,-,N/A,,Clear,0,2013-08-02 13:35:00
8:55 AM,73.0,66.9,81,30.02,10.0,SSW,3.5,-,N/A,,Clear,210,2013-08-02 13:55:00
9:15 AM,74.8,67.1,77,30.03,10.0,SW,5.8,-,N/A,,Clear,220,2013-08-02 14:15:00
9:35 AM,77.5,66.6,69,30.03,10.0,SSW,6.9,-,N/A,,Clear,210,2013-08-02 14:35:00
9:55 AM,80.1,66.7,64,30.02,10.0,SW,5.8,-,N/A,,Clear,220,2013-08-02 14:55:00
10:15 AM,79.7,66.2,63,30.03,10.0,SW,6.9,-,N/A,,Clear,230,2013-08-02 15:15:00
10:35 AM,82.6,66.4,58,30.03,10.0,SSW,8.1,-,N/A,,Clear,200,2013-08-02 15:35:00
10:55 AM,83.8,65.1,53,30.03,10.0,SSW,9.2,-,N/A,,Clear,210,2013-08-02 15:55:00
11:15 AM,84.2,64.4,51,30.03,10.0,SSW,11.5,-,N/A,,Clear,200,2013-08-02 16:15:00
11:35 AM,83.5,63.9,51,30.03,10.0,SSW,12.7,-,N/A,,Clear,210,2013-08-02 16:35:00
11:55 AM,83.5,65.1,54,30.04,10.0,WSW,9.2,-,N/A,,Clear,240,2013-08-02 16:55:00
12:15 PM,83.5,64.6,53,30.03,10.0,SSW,8.1,-,N/A,,Clear,210,2013-08-02 17:15:00
12:35 PM,84.4,64.6,51,30.03,10.0,SSW,8.1,-,N/A,,Clear,210,2013-08-02 17:35:00
12:55 PM,84.6,64.0,50,30.03,10.0,SSW,9.2,-,N/A,,Clear,200,2013-08-02 17:55:00
1:15 PM,85.3,61.0,44,30.02,10.0,SSW,9.2,-,N/A,,Clear,200,2013-08-02 18:15:00
1:35 PM,84.6,63.0,48,30.02,10.0,South,8.1,-,N/A,,Clear,190,2013-08-02 18:35:00
1:55 PM,86.0,62.6,45,30.02,10.0,South,8.1,-,N/A,,Clear,190,2013-08-02 18:55:00
2:15 PM,86.7,62.1,43,30.01,10.0,South,10.4,-,N/A,,Clear,190,2013-08-02 19:15:00
2:35 PM,86.7,62.6,44,30.02,10.0,SSW,8.1,-,N/A,,Clear,200,2013-08-02 19:35:00
2:55 PM,87.1,64.0,46,30.01,10.0,SSW,8.1,-,N/A,,Clear,200,2013-08-02 19:55:00
3:15 PM,86.2,63.5,47,30.00,10.0,South,9.2,-,N/A,,Clear,190,2013-08-02 20:15:00
3:35 PM,84.6,63.5,49,29.99,10.0,South,6.9,-,N/A,,Clear,190,2013-08-02 20:35:00
3:55 PM,83.3,65.3,54,29.98,10.0,SSE,6.9,-,N/A,,Clear,160,2013-08-02 20:55:00
4:15 PM,83.3,66.4,57,29.98,10.0,SSE,6.9,-,N/A,,Clear,160,2013-08-02 21:15:00
4:35 PM,82.8,68.2,61,29.98,10.0,SSE,5.8,-,N/A,,Clear,160,2013-08-02 21:35:00
4:55 PM,82.6,67.8,61,29.98,10.0,South,9.2,-,N/A,,Clear,170,2013-08-02 21:55:00
5:15 PM,81.5,67.1,61,29.97,10.0,South,8.1,-,N/A,,Clear,170,2013-08-02 22:15:00
5:35 PM,80.6,67.3,64,29.97,10.0,South,5.8,-,N/A,,Scattered Clouds,170,2013-08-02 22:35:00
5:55 PM,80.1,66.6,63,29.96,10.0,SSE,5.8,-,N/A,,Scattered Clouds,160,2013-08-02 22:55:00
6:15 PM,79.3,66.4,64,29.96,10.0,South,5.8,-,N/A,,Scattered Clouds,180,2013-08-02 23:15:00
6:35 PM,78.1,67.5,70,29.96,10.0,South,4.6,-,N/A,Rain,Light Rain,180,2013-08-02 23:35:00
6:55 PM,77.2,68.2,74,29.97,10.0,South,3.5,-,N/A,,Clear,190,2013-08-02 23:55:00
7:15 PM,76.8,69.1,77,29.97,10.0,SSE,3.5,-,N/A,,Clear,160,2013-08-03 00:15:00
7:35 PM,75.6,69.6,82,29.97,10.0,SE,4.6,-,N/A,,Scattered Clouds,130,2013-08-03 00:35:00
7:55 PM,75.2,69.8,83,29.97,10.0,ESE,3.5,-,N/A,,Clear,110,2013-08-03 00:55:00
8:15 PM,74.5,69.4,84,29.97,10.0,ENE,3.5,-,N/A,,Clear,70,2013-08-03 01:15:00
8:35 PM,74.1,70.2,87,29.98,10.0,Calm,Calm,-,N/A,,Scattered Clouds,0,2013-08-03 01:35:00
8:55 PM,74.1,70.3,88,30.00,10.0,West,3.5,-,N/A,,Mostly Cloudy,260,2013-08-03 01:55:00
9:15 PM,74.3,70.7,88,30.01,10.0,SSW,4.6,-,N/A,Rain,Light Rain,210,2013-08-03 02:15:00
9:35 PM,74.5,69.1,83,30.00,7.0,SSW,9.2,-,0.01,Rain,Rain,200,2013-08-03 02:35:00
9:55 PM,73.6,68.2,83,29.99,10.0,SSW,12.7,-,0.03,Rain,Light Rain,200,2013-08-03 02:55:00
10:15 PM,73.0,68.0,84,29.97,10.0,South,11.5,-,0.02,Rain,Rain,190,2013-08-03 03:15:00
10:35 PM,72.7,68.9,88,29.94,10.0,South,9.2,-,0.02,Rain,Light Rain,190,2013-08-03 03:35:00
10:55 PM,73.2,67.6,83,29.96,10.0,WSW,10.4,-,0.02,,Clear,240,2013-08-03 03:55:00
11:15 PM,72.1,68.0,87,29.98,10.0,North,12.7,-,N/A,,Scattered Clouds,350,2013-08-03 04:15:00
11:35 PM,71.2,67.5,88,29.95,10.0,South,6.9,-,N/A,,Scattered Clouds,170,2013-08-03 04:35:00
11:55 PM,70.0,66.7,89,29.96,10.0,NNE,3.5,-,N/A,,Clear,30,2013-08-03 04:55:00